Batesville, AR

9:41 AM CST on November 24, 2017 (GMT -0600)
Batesville Regional

Weather History for KBVX - January, 2013

Change the Weather History Date:

Saturday, January 26, 2013

  Actual Average Record
Temperature  
Mean Temperature 42 °F -  
Max Temperature 53 °F 48 °F 78 °F (1952)
Min Temperature 32 °F 26 °F 11 °F (1978)
Degree Days  
Heating Degree Days 22    
Moisture  
Dew Point 30 °F    
Average Humidity 65    
Maximum Humidity 93    
Minimum Humidity 38    
Precipitation  
Precipitation 0.00 in - - ()
Sea Level Pressure  
Sea Level Pressure 30.30 in    
Wind  
Wind Speed 3 mph (East)    
Max Wind Speed 12 mph    
Max Gust Speed -    
Visibility 10 miles    
Events      
Averages and records for this station are not official NWS values.
T = Trace of Precipitation, MM = Missing Value Source: NWS Daily Summary

Daily Weather History Graph

Daily Weather History Graph

Search for Another Location

Airport or City:

Trip Planner

Search our weather history database for the weather conditions in past years. The results will help you decide how hot, cold, wet, or windy it might be!

Date:

Astronomy

Jan. 26, 2013 Rise Set
Actual Time 7:10 AM CST 5:28 PM CST
Civil Twilight 6:43 AM CST 5:55 PM CST
Nautical Twilight 6:12 AM CST 6:26 PM CST
Astronomical Twilight 5:42 AM CST 6:56 PM CST
Moon 5:21 PM CST (1/26) 6:29 AM CST (1/26)
Length of Visible Light 11h 11m
Length of Day
10h 17m
Full, 100% of the Moon is Illuminated
Jan 26
Full
Jan 26
Full
Feb 3
Last Quarter
Feb 10
New
Feb 17
First Quarter

Hourly Weather History & Observations

Time (CST) Temp. Windchill Dew Point Humidity Pressure Visibility Wind Dir Wind Speed Gust Speed Precip Events Conditions
12:15 AM 37.4 °F - 32.0 °F 81% 30.27 in 10.0 mi Calm Calm - N/A   Clear
12:35 AM 37.4 °F 34.9 °F 32.0 °F 81% 30.28 in 10.0 mi NW 3.5 mph - N/A   Clear
12:55 AM 37.4 °F - 30.2 °F 75% 30.28 in 10.0 mi Calm Calm - N/A   Clear
1:16 AM 35.6 °F - 30.2 °F 81% 30.28 in 10.0 mi Calm Calm - N/A   Clear
1:35 AM 37.4 °F 34.9 °F 32.0 °F 81% 30.28 in 10.0 mi NW 3.5 mph - N/A   Clear
1:55 AM 37.4 °F - 30.2 °F 75% 30.28 in 10.0 mi Calm Calm - N/A   Clear
2:35 AM 35.6 °F - 30.2 °F 81% 30.28 in 10.0 mi Calm Calm - N/A   Clear
2:55 AM 33.8 °F - 28.4 °F 81% 30.29 in 10.0 mi Calm Calm - N/A   Clear
3:15 AM 33.8 °F - 30.2 °F 87% 30.29 in 10.0 mi Calm Calm - N/A   Clear
3:36 AM 33.8 °F - 32.0 °F 93% 30.29 in 10.0 mi Calm Calm - N/A   Clear
3:55 AM 35.6 °F 32.8 °F 30.2 °F 81% 30.29 in 10.0 mi West 3.5 mph - N/A   Clear
4:15 AM 33.8 °F - 30.2 °F 87% 30.28 in 10.0 mi Calm Calm - N/A   Clear
4:55 AM 33.8 °F 30.8 °F 30.2 °F 87% 30.29 in 10.0 mi NW 3.5 mph - N/A   Clear
5:15 AM 33.8 °F 29.6 °F 30.2 °F 87% 30.29 in 10.0 mi WNW 4.6 mph - N/A   Clear
5:55 AM 35.6 °F 32.8 °F 30.2 °F 81% 30.31 in 10.0 mi WNW 3.5 mph - N/A   Clear
6:15 AM 33.8 °F - 28.4 °F 81% 30.30 in 10.0 mi Calm Calm - N/A   Clear
6:35 AM 33.8 °F 30.8 °F 30.2 °F 87% 30.31 in 10.0 mi WNW 3.5 mph - N/A   Clear
7:15 AM 32.0 °F 28.7 °F 28.4 °F 87% 30.32 in 9.0 mi West 3.5 mph - N/A   Clear
7:35 AM 32.0 °F 28.7 °F 30.2 °F 93% 30.32 in 9.0 mi WNW 3.5 mph - N/A   Clear
8:16 AM 33.8 °F - 28.4 °F 81% 30.32 in 10.0 mi Calm Calm - N/A   Clear
8:36 AM 35.6 °F 32.8 °F 30.2 °F 81% 30.33 in 10.0 mi West 3.5 mph - N/A   Clear
8:55 AM 35.6 °F 32.8 °F 30.2 °F 81% 30.35 in 9.0 mi West 3.5 mph - N/A   Clear
9:15 AM 37.4 °F - 30.2 °F 75% 30.35 in 10.0 mi Calm Calm - N/A   Clear
9:35 AM 41.0 °F - 30.2 °F 65% 30.36 in 10.0 mi Calm Calm - N/A   Clear
9:55 AM 42.8 °F - 30.2 °F 61% 30.36 in 10.0 mi Calm Calm - N/A   Clear
10:15 AM 46.4 °F 43.5 °F 28.4 °F 50% 30.36 in 10.0 mi ENE 5.8 mph - N/A   Clear
10:56 AM 48.2 °F - 26.6 °F 43% 30.36 in 10.0 mi East 6.9 mph - N/A   Clear
11:15 AM 48.2 °F - 28.4 °F 46% 30.35 in 10.0 mi ENE 5.8 mph - N/A   Clear
11:35 AM 51.8 °F - 26.6 °F 38% 30.34 in 10.0 mi East 8.1 mph - N/A   Clear
11:55 AM 51.8 °F - 28.4 °F 41% 30.34 in 10.0 mi East 9.2 mph - N/A   Clear
12:15 PM 51.8 °F - 26.6 °F 38% 30.33 in 10.0 mi ESE 9.2 mph - N/A   Clear
12:35 PM 51.8 °F - 28.4 °F 41% 30.32 in 10.0 mi ESE 11.5 mph - N/A   Clear
1:16 PM 53.6 °F - 28.4 °F 38% 30.30 in 10.0 mi East 9.2 mph - N/A   Clear
1:35 PM 51.8 °F - 30.2 °F 44% 30.30 in 10.0 mi ENE 9.2 mph - N/A   Mostly Cloudy
1:55 PM 51.8 °F - 30.2 °F 44% 30.29 in 10.0 mi East 9.2 mph - N/A   Overcast
2:15 PM 51.8 °F - 30.2 °F 44% 30.28 in 10.0 mi East 8.1 mph - N/A   Overcast
2:35 PM 51.8 °F - 30.2 °F 44% 30.28 in 10.0 mi East 8.1 mph - N/A   Overcast
2:55 PM 50.0 °F - 30.2 °F 47% 30.27 in 10.0 mi East 10.4 mph - N/A   Overcast
3:15 PM 50.0 °F - 30.2 °F 47% 30.28 in 10.0 mi ESE 10.4 mph - N/A   Overcast
3:56 PM 50.0 °F - 30.2 °F 47% 30.28 in 10.0 mi East 8.1 mph - N/A   Overcast
4:15 PM 48.2 °F - 30.2 °F 50% 30.27 in 10.0 mi ESE 8.1 mph - N/A   Overcast
4:35 PM 48.2 °F - 30.2 °F 50% 30.27 in 10.0 mi East 8.1 mph - N/A   Overcast
4:55 PM 48.2 °F - 30.2 °F 50% 30.26 in 10.0 mi East 9.2 mph - N/A   Overcast
5:15 PM 48.2 °F - 32.0 °F 54% 30.27 in 10.0 mi East 8.1 mph - N/A   Overcast
5:35 PM 46.4 °F 41.9 °F 32.0 °F 57% 30.26 in 10.0 mi East 9.2 mph - N/A   Overcast
6:16 PM 46.4 °F 42.9 °F 32.0 °F 57% 30.28 in 10.0 mi ESE 6.9 mph - N/A   Overcast
6:35 PM 46.4 °F 42.9 °F 32.0 °F 57% 30.28 in 10.0 mi ESE 6.9 mph - N/A   Overcast
6:55 PM 46.4 °F 42.9 °F 33.8 °F 62% 30.28 in 10.0 mi East 6.9 mph - N/A   Overcast
7:15 PM 46.4 °F 41.9 °F 33.8 °F 62% 30.28 in 10.0 mi East 9.2 mph - N/A   Overcast
7:35 PM 46.4 °F 42.4 °F 33.8 °F 62% 30.28 in 10.0 mi East 8.1 mph - N/A   Overcast
7:55 PM 44.6 °F 40.7 °F 33.8 °F 66% 30.28 in 10.0 mi ESE 6.9 mph - N/A   Overcast
8:15 PM 44.6 °F 41.4 °F 33.8 °F 66% 30.29 in 10.0 mi ESE 5.8 mph - N/A   Overcast
9:55 PM 44.6 °F 40.7 °F 33.8 °F 66% 30.28 in 10.0 mi ESE 6.9 mph - N/A   Overcast